Location: Horowhenua
(40.7500°S, 175.3333°E)
Time: 12:21:03
(UTC+00:00)

Cosmos 1842 - Pass Details

Date: 28 January 2023
Orbit: 507 x 522 km, 82.5° (Epoch: 28 March)

Event Time Altitude Azimuth Distance (km) Brightness Sun altitude
Exits shadow 14:47:34 45° 62° (ENE) 736 3.9 -23.2°
Maximum altitude 14:48:02 48° 86° (E) 708 4.0 -23.1°
Drops below altitude 10° 14:51:52 10° 161° (SSE) 1,802 7.0 -22.7°
Sets 14:54:04 0° 166° (SSE) 2,698 8.0 -22.4°
